Ellington Field, TX

7:26 AM CDT on August 20, 2017 (GMT -0500)
Ellington

Weather History for KEFD - February, 2013

Change the Weather History Date:

Monday, February 18, 2013

  Actual Average Record
Temperature  
Mean Temperature 68 °F -  
Max Temperature 71 °F 66 °F 82 °F (2000)
Min Temperature 57 °F 48 °F 37 °F (2001)
Cooling Degree Days 2    
Growing Degree Days 18 (Base 50)    
Moisture  
Dew Point 59 °F    
Average Humidity 76    
Maximum Humidity 94    
Minimum Humidity 59    
Precipitation  
Precipitation 0.00 in - - ()
Sea Level Pressure  
Sea Level Pressure 29.98 in    
Wind  
Wind Speed 14 mph (South)    
Max Wind Speed 22 mph    
Max Gust Speed 37 mph    
Visibility 9 miles    
Events Rain    
Averages and records for this station are not official NWS values.
T = Trace of Precipitation, MM = Missing Value Source: NWS Daily Summary

Daily Weather History Graph

Daily Weather History Graph

Search for Another Location

Airport or City:

Trip Planner

Search our weather history database for the weather conditions in past years. The results will help you decide how hot, cold, wet, or windy it might be!

Date:

Astronomy

Feb. 18, 2013 Rise Set
Actual Time 6:57 AM CST 6:12 PM CST
Civil Twilight 6:32 AM CST 6:36 PM CST
Nautical Twilight 6:04 AM CST 7:04 PM CST
Astronomical Twilight 5:37 AM CST 7:32 PM CST
Moon 12:11 PM CST (2/18) 1:25 AM CST (2/18)
Length of Visible Light 12h 03m
Length of Day
11h 15m
First Quarter, 58% of the Moon is Illuminated
Feb 18
First Quarter
Feb 25
Full
Mar 4
Last Quarter
Mar 11
New
Mar 19
First Quarter

Hourly Weather History & Observations

Time (CST) Temp. Dew Point Humidity Pressure Visibility Wind Dir Wind Speed Gust Speed Precip Events Conditions
12:50 AM 64.4 °F 50.0 °F 59% 30.06 in 10.0 mi SSE 11.5 mph - N/A   Overcast
1:50 AM 64.4 °F 50.0 °F 59% 30.04 in 10.0 mi SSE 13.8 mph - N/A   Mostly Cloudy
2:50 AM 64.4 °F 50.0 °F 59% 30.04 in 10.0 mi SSE 13.8 mph - N/A   Overcast
3:50 AM 64.4 °F 53.6 °F 68% 30.00 in 10.0 mi SSE 16.1 mph 21.9 mph N/A   Overcast
5:50 AM 64.4 °F 53.6 °F 68% 29.98 in 10.0 mi South 13.8 mph - N/A   Overcast
6:50 AM 64.4 °F 57.2 °F 77% 29.98 in 10.0 mi South 13.8 mph - N/A   Overcast
7:50 AM 64.4 °F 57.2 °F 77% 29.98 in 10.0 mi South 12.7 mph - N/A   Mostly Cloudy
8:50 AM 68.0 °F 60.8 °F 78% 30.30 in 10.0 mi SSE 16.1 mph - N/A   Mostly Cloudy
9:50 AM 69.8 °F 59.0 °F 68% 30.00 in 10.0 mi South 21.9 mph 32.2 mph N/A   Mostly Cloudy
10:50 AM 69.8 °F 59.0 °F 68% 30.00 in 10.0 mi South 21.9 mph 29.9 mph N/A   Overcast
11:10 AM 69.8 °F 59.0 °F 68% 30.00 in 10.0 mi South 17.3 mph 28.8 mph N/A Rain Rain
11:50 AM 69.8 °F 60.8 °F 73% 30.00 in 10.0 mi South 17.3 mph - N/A Rain Light Rain
12:50 PM 71.6 °F 59.0 °F 64% 29.95 in 10.0 mi South 17.3 mph - N/A   Mostly Cloudy
1:50 PM 71.6 °F 60.8 °F 69% 29.90 in 7.0 mi South 21.9 mph 29.9 mph N/A Rain Light Rain
2:50 PM 71.6 °F 62.6 °F 73% 29.88 in 7.0 mi South 21.9 mph 33.4 mph N/A   Overcast
3:20 PM 69.8 °F 62.6 °F 78% 29.88 in 3.0 mi South 21.9 mph 28.8 mph N/A Rain Rain
3:50 PM 69.8 °F 66.2 °F 88% 29.86 in 6.0 mi South 13.8 mph - N/A Rain Light Rain
4:50 PM 69.8 °F 66.2 °F 88% 29.89 in 6.0 mi SW 9.2 mph - N/A Rain Light Rain
5:50 PM 69.8 °F 66.2 °F 88% 29.90 in 8.0 mi SSW 12.7 mph - N/A   Mostly Cloudy
6:50 PM 68.0 °F 64.4 °F 88% 29.93 in 10.0 mi SSW 8.1 mph - N/A   Scattered Clouds
7:50 PM 68.0 °F 64.4 °F 88% 29.95 in 10.0 mi SSW 6.9 mph - N/A   Scattered Clouds
8:50 PM 66.2 °F 64.4 °F 94% 29.96 in 10.0 mi SSW 6.9 mph - N/A   Scattered Clouds
9:50 PM 66.2 °F 64.4 °F 94% 29.97 in 10.0 mi SSW 11.5 mph - N/A   Scattered Clouds
10:50 PM 64.4 °F 53.6 °F 68% 30.04 in 7.0 mi NW 19.6 mph 36.8 mph N/A Rain Heavy Rain
11:50 PM 57.2 °F 53.6 °F 88% 30.10 in 7.0 mi NNW 3.5 mph - N/A Rain Light Rain